User: anonymous   Login
Location: Laguna de la Cañada del Gallo
(40.3974°N, 5.2096°W)
Time: 23:34:41
(UTC+00:00)
Language:

Cosmos 44 - Orbit

View from above orbital plane
View from above orbital plane
View from above satellite
View from above satellite

Ground track
Ground track

The orbit data is extracted from the following two-line orbital elements,

1 00876U 64053A   24168.79284670  .00000670  00000-0  13135-3 0  9992
2 00876  65.0611 322.4807 0140667 196.1216 163.5388 14.64727122181659
Epoch (UTC): 16 June 2024 19:01:41
Eccentricity: 0.0140667
inclination: 65.0611°
perigee height: 579 km
apogee height: 777 km
right ascension of ascending node: 322.4807°
argument of perigee: 196.1216°
revolutions per day: 14.64727122
mean anomaly at epoch: 163.5388°
orbit number at epoch: 18165

The dashed part of the orbit path shows where the satellite is in the earth's shadow,  

DLR